User: anonymous   Login
Location: Unspecified
(0.0000°N, 0.0000°E)
Time: 07:10:59
(UTC+00:00)
Language:

HORYU 2 - Orbit

View from above orbital plane
View from above orbital plane
View from above satellite
View from above satellite

Ground track
Ground track

The orbit data is extracted from the following two-line orbital elements,

1 38340U 12025D   17178.73524250 +.00000176 +00000-0 +34151-4 0  9992
2 38340 098.3761 183.0281 0010282 257.3287 102.6772 14.75345815264431
Epoch (UTC): 27 June 2017 17:38:44
Eccentricity: 0.0010282
inclination: 98.3761°
perigee height: 637 km
apogee height: 651 km
right ascension of ascending node: 183.0281°
argument of perigee: 257.3287°
revolutions per day: 14.75345815
mean anomaly at epoch: 102.6772°
orbit number at epoch: 26443

The dashed part of the orbit path shows where the satellite is in the earth's shadow,  

DLR